Flag for Guatemala Weather past 2 weeks in Guatemala, Guatemala

Now
79 °F

Passing clouds.


Feels Like: 81 °F
Forecast: N/A
Wind: 16 mph from South

Location: Guatemala Aeropuertola Aurora

Current Time: Apr 19, 2015 at 3:24:38 PM

Latest Report: Apr 19, 2015 at 3:00 PM


Visibility: N/A

Pressure: 30.15 "Hg

Humidity: 61%

Dew point: 64 °F

Location of GuatemalaLocation

Historic Weather in Guatemala — Graph

°F

Guatemala temperature yesterday

Maximum temperature yesterday: 77 °F (at 4:00 PM)
Minimum temperature yesterday: 64 °F (at 6:00 AM)
Average temperature yesterday: 69 °F

Past Weeks' High & Low Weather Summary

 TemperatureHumidityPressure
High82 °F (Apr 11, 2:00 PM)100% (Apr 9, 2:00 AM)30.36 "Hg (Apr 9, 2:00 AM)
Low57 °F (Apr 6, 6:00 AM)34% (Apr 7, 3:00 PM)30.15 "Hg (Apr 9, 5:00 PM)
Average69 °F74%30.25 "Hg
* Reported Apr 4 2:00 PM — Apr 19 2:00 PM, Guatemala, Weather by CustomWeather, © 2015

Note: Actual official high and low records may vary slightly from our data, if they occured in-between our weather recording intervals... More about our weather records

Advertising

Guatemala weather history for previous 24 hours

 ConditionsComfort  
Time TempWeatherWind HumidityBarometerVisibility
2:00 PM
Sun, Apr 19
81 °FScattered clouds.16 mph54%30.18 "HgN/A
1:00 PM81 °FScattered clouds.14 mph54%30.21 "HgN/A
12:00 PM79 °FScattered clouds.12 mph58%30.24 "HgN/A
11:00 AM79 °FScattered clouds.12 mph54%30.27 "HgN/A
10:00 AM75 °FPassing clouds.12 mph65%30.27 "Hg5 mi
9:00 AM70 °FHaze.7 mph78%30.27 "Hg3 mi
8:00 AM66 °FFog.No wind94%30.27 "Hg2 mi
7:00 AM63 °FFog.No wind100%30.24 "Hg2 mi
6:15 AMN/AFog.No windN/AN/A1 mi
6:00 AM63 °FFog.No wind100%30.24 "Hg1 mi
5:00 AM63 °FFog.No wind100%30.21 "Hg1 mi
4:07 AMN/AFog.5 mphN/AN/A1 mi
4:00 AM63 °FFog.No wind100%30.18 "Hg1 mi
3:00 AM63 °FFog.No wind100%30.21 "Hg2 mi
2:00 AM64 °FFog.No wind94%30.21 "Hg1 mi
1:00 AM64 °FFog.No wind94%30.24 "Hg1 mi
12:00 AM64 °FFog.5 mph94%30.27 "Hg1 mi
11:00 PM
Sat, Apr 18
66 °FPassing clouds.7 mph88%30.27 "Hg4 mi
10:00 PM66 °FPassing clouds.9 mph88%30.27 "Hg4 mi
9:00 PM66 °FPassing clouds.12 mph94%30.27 "Hg4 mi
8:00 PM68 °FPassing clouds.12 mph83%30.24 "Hg4 mi
7:00 PM68 °FPassing clouds.12 mph88%30.21 "Hg4 mi
6:00 PM72 °FScattered clouds.14 mph73%30.18 "Hg4 mi
5:00 PM75 °FBroken clouds.9 mph65%30.15 "HgN/A
4:00 PM77 °FScattered clouds.9 mph61%30.15 "HgN/A
3:00 PM75 °FScattered clouds.12 mph65%30.18 "HgN/A
Weather by CustomWeather, © 2015

See weather overviewHow to use our weather pages